Previsão horária em Aba

Hoje, 11 Abril, Domingo

Tempo Temperatura Precipitação Vento Pressão Humidade
00:00 +7°C° 0 mm 3 m/s 755 mmHg 76%
01:00 +7°C° 0 mm 3 m/s 755 mmHg 79%
02:00 +7°C° 0 mm 3 m/s 755 mmHg 78%
03:00 +7°C° 0 mm 3 m/s 755 mmHg 78%
04:00 +7°C° 0 mm 3 m/s 755 mmHg 77%
05:00 +8°C° 0 mm 3 m/s 755 mmHg 74%
06:00 +9°C° 0 mm 3 m/s 755 mmHg 71%
07:00 +10°C° 0 mm 3 m/s 755 mmHg 68%
08:00 +12°C° 0 mm 4 m/s 755 mmHg 61%
09:00 +14°C° 0 mm 5 m/s 755 mmHg 54%
10:00 +16°C° 0 mm 6 m/s 755 mmHg 47%
11:00 +15°C° 0 mm 6 m/s 755 mmHg 47%
12:00 +15°C° 0 mm 6 m/s 755 mmHg 47%
13:00 +15°C° 0 mm 6 m/s 755 mmHg 47%
14:00 +15°C° 0 mm 5 m/s 755 mmHg 50%
15:00 +14°C° 0 mm 5 m/s 754 mmHg 53%
16:00 +14°C° 0 mm 5 m/s 754 mmHg 56%
17:00 +13°C° 0 mm 4 m/s 754 mmHg 59%
18:00 +12°C° 0 mm 4 m/s 754 mmHg 63%
19:00 +11°C° 0 mm 4 m/s 754 mmHg 67%
20:00 +11°C° 0 mm 4 m/s 754 mmHg 68%
21:00 +10°C° 0 mm 4 m/s 754 mmHg 70%
22:00 +10°C° 0 mm 4 m/s 754 mmHg 71%
23:00 +8°C° 0 mm 4 m/s 754 mmHg 73%

Amanhã, 12 Abril, Segunda-feira

Tempo Temperatura Precipitação Vento Pressão Humidade
00:00 +8°C° 0 mm 4 m/s 754 mmHg 75%
01:00 +8°C° 0 mm 4 m/s 754 mmHg 77%
02:00 +8°C° 0 mm 4 m/s 754 mmHg 78%
03:00 +7°C° 0 mm 4 m/s 754 mmHg 78%
04:00 +7°C° 0 mm 4 m/s 753 mmHg 78%
05:00 +8°C° 0 mm 4 m/s 754 mmHg 75%
06:00 +10°C° 0 mm 4 m/s 754 mmHg 71%
07:00 +11°C° 0 mm 4 m/s 754 mmHg 68%
08:00 +13°C° 0 mm 5 m/s 754 mmHg 62%
09:00 +15°C° 0 mm 6 m/s 754 mmHg 57%
10:00 +19°C° 0 mm 6 m/s 754 mmHg 51%
11:00 +19°C° 0 mm 6 m/s 753 mmHg 50%
12:00 +19°C° 0 mm 6 m/s 753 mmHg 49%
13:00 +20°C° 0 mm 5 m/s 753 mmHg 48%
14:00 +19°C° 0.1 mm 5 m/s 753 mmHg 55%
15:00 +18°C° 0.1 mm 4 m/s 753 mmHg 61%
16:00 +15°C° 0.1 mm 4 m/s 753 mmHg 67%
17:00 +14°C° 0.2 mm 3 m/s 753 mmHg 73%
18:00 +13°C° 0.2 mm 3 m/s 753 mmHg 79%
19:00 +12°C° 0.2 mm 3 m/s 753 mmHg 85%
20:00 +10°C° 0.5 mm 4 m/s 754 mmHg 86%
21:00 +8°C° 0.5 mm 5 m/s 754 mmHg 87%
22:00 +5°C° 0.5 mm 7 m/s 755 mmHg 88%
23:00 +4°C° 0.1 mm 7 m/s 755 mmHg 88%

Depois de amanhã, 13 Abril, Terça-feira

Tempo Temperatura Precipitação Vento Pressão Humidade
00:00 +3°C° 0.1 mm 6 m/s 755 mmHg 87%
01:00 +2°C° 0.1 mm 6 m/s 755 mmHg 87%
02:00 +2°C° 0.3 mm 7 m/s 755 mmHg 88%
03:00 +2°C° 0.3 mm 7 m/s 755 mmHg 90%
04:00 +2°C° 0.3 mm 7 m/s 754 mmHg 92%
05:00 +2°C° 0.1 mm 7 m/s 754 mmHg 91%
06:00 +2°C° 0.1 mm 7 m/s 754 mmHg 91%
07:00 +2°C° 0.1 mm 7 m/s 754 mmHg 90%
08:00 +2°C° 0.6 mm 7 m/s 754 mmHg 90%
09:00 +2°C° 0.6 mm 6 m/s 754 mmHg 90%
10:00 +2°C° 0.6 mm 6 m/s 754 mmHg 89%
11:00 +2°C° 1 mm 7 m/s 754 mmHg 90%
12:00 0°C° 1 mm 7 m/s 754 mmHg 91%
13:00 0°C° 1 mm 7 m/s 754 mmHg 92%
14:00 0°C° 0.7 mm 7 m/s 754 mmHg 93%
15:00 0°C° 0.7 mm 7 m/s 754 mmHg 93%
16:00 -1°C° 0.7 mm 7 m/s 754 mmHg 94%
17:00 -1°C° 0.5 mm 7 m/s 754 mmHg 95%
18:00 -1°C° 0.5 mm 7 m/s 754 mmHg 95%
19:00 -1°C° 0.5 mm 7 m/s 754 mmHg 95%
20:00 -1°C° 0.1 mm 7 m/s 754 mmHg 96%
21:00 -1°C° 0.1 mm 7 m/s 754 mmHg 96%
22:00 -1°C° 0.1 mm 7 m/s 754 mmHg 96%
23:00 -1°C° 0.3 mm 7 m/s 754 mmHg 96%

14 Abril, Quarta-feira

Tempo Temperatura Precipitação Vento Pressão Humidade
00:00 -1°C° 0.3 mm 7 m/s 754 mmHg 96%
01:00 -1°C° 0.3 mm 7 m/s 754 mmHg 96%
02:00 -1°C° 0.3 mm 7 m/s 754 mmHg 96%
03:00 -1°C° 0.3 mm 7 m/s 754 mmHg 96%
04:00 -1°C° 0.3 mm 7 m/s 753 mmHg 96%
05:00 -1°C° 0.2 mm 7 m/s 754 mmHg 96%
06:00 -1°C° 0.2 mm 7 m/s 754 mmHg 96%
07:00 -1°C° 0.2 mm 7 m/s 754 mmHg 95%
08:00 0°C° 0.1 mm 7 m/s 754 mmHg 92%
09:00 +2°C° 0.1 mm 7 m/s 754 mmHg 89%
10:00 +3°C° 0.1 mm 7 m/s 754 mmHg 86%
11:00 +4°C° 0 mm 7 m/s 754 mmHg 80%
12:00 +4°C° 0 mm 7 m/s 754 mmHg 74%
13:00 +5°C° 0 mm 7 m/s 753 mmHg 68%
14:00 +6°C° 0 mm 7 m/s 753 mmHg 66%
15:00 +6°C° 0 mm 7 m/s 753 mmHg 65%
16:00 +6°C° 0 mm 7 m/s 753 mmHg 64%
17:00 +5°C° 0 mm 7 m/s 753 mmHg 65%
18:00 +4°C° 0 mm 7 m/s 753 mmHg 66%
19:00 +3°C° 0 mm 7 m/s 754 mmHg 68%
20:00 +3°C° 0 mm 7 m/s 754 mmHg 70%
21:00 +2°C° 0 mm 7 m/s 754 mmHg 73%
22:00 +2°C° 0 mm 7 m/s 754 mmHg 75%
23:00 +2°C° 0 mm 7 m/s 754 mmHg 77%

15 Abril, Quinta-feira

Tempo Temperatura Precipitação Vento Pressão Humidade
00:00 0°C° 0 mm 7 m/s 754 mmHg 79%
01:00 0°C° 0 mm 7 m/s 754 mmHg 80%
02:00 0°C° 0 mm 7 m/s 754 mmHg 81%
03:00 0°C° 0 mm 7 m/s 754 mmHg 81%
04:00 -1°C° 0 mm 7 m/s 754 mmHg 81%
05:00 0°C° 0 mm 7 m/s 754 mmHg 83%
06:00 0°C° 0 mm 7 m/s 754 mmHg 84%
07:00 0°C° 0 mm 7 m/s 754 mmHg 85%
08:00 +2°C° 0.1 mm 7 m/s 755 mmHg 84%
09:00 +2°C° 0.1 mm 7 m/s 755 mmHg 82%
10:00 +2°C° 0.1 mm 7 m/s 755 mmHg 81%
11:00 +3°C° 0.1 mm 7 m/s 755 mmHg 78%
12:00 +4°C° 0.1 mm 7 m/s 755 mmHg 75%
13:00 +4°C° 0.1 mm 8 m/s 755 mmHg 72%
14:00 +4°C° 0.1 mm 7 m/s 755 mmHg 72%
15:00 +4°C° 0.1 mm 7 m/s 755 mmHg 72%
16:00 +4°C° 0.1 mm 7 m/s 755 mmHg 72%
17:00 +4°C° 0 mm 7 m/s 755 mmHg 75%
18:00 +3°C° 0 mm 6 m/s 756 mmHg 78%
19:00 +2°C° 0 mm 6 m/s 756 mmHg 81%
20:00 +2°C° 0 mm 6 m/s 756 mmHg 83%
21:00 +1°C° 0 mm 6 m/s 756 mmHg 86%
22:00 +1°C° 0 mm 6 m/s 757 mmHg 88%
23:00 +1°C° 0 mm 6 m/s 757 mmHg 88%

16 Abril, Sexta-feira

Tempo Temperatura Precipitação Vento Pressão Humidade
00:00 +1°C° 0 mm 6 m/s 757 mmHg 87%
01:00 +1°C° 0 mm 6 m/s 757 mmHg 87%
02:00 +1°C° 0 mm 6 m/s 757 mmHg 89%
03:00 +1°C° 0 mm 6 m/s 757 mmHg 90%
04:00 +1°C° 0 mm 5 m/s 757 mmHg 92%
05:00 +1°C° 0 mm 5 m/s 757 mmHg 92%
06:00 +1°C° 0 mm 5 m/s 758 mmHg 92%
07:00 +1°C° 0 mm 5 m/s 758 mmHg 92%
08:00 +1°C° 0 mm 4 m/s 758 mmHg 89%
09:00 +3°C° 0 mm 4 m/s 758 mmHg 87%
10:00 +4°C° 0 mm 4 m/s 759 mmHg 84%
11:00 +4°C° 0 mm 4 m/s 758 mmHg 82%
12:00 +5°C° 0 mm 4 m/s 758 mmHg 80%
13:00 +6°C° 0 mm 4 m/s 758 mmHg 77%
14:00 +7°C° 0 mm 3 m/s 758 mmHg 77%
15:00 +7°C° 0 mm 3 m/s 758 mmHg 76%
16:00 +8°C° 0 mm 3 m/s 758 mmHg 75%
17:00 +7°C° 0 mm 3 m/s 758 mmHg 79%
18:00 +6°C° 0 mm 2 m/s 759 mmHg 82%
19:00 +6°C° 0 mm 2 m/s 759 mmHg 86%
20:00 +6°C° 0 mm 2 m/s 759 mmHg 87%
21:00 +6°C° 0 mm 2 m/s 759 mmHg 87%
22:00 +6°C° 0 mm 2 m/s 760 mmHg 88%
23:00 +6°C° 0 mm 2 m/s 760 mmHg 89%
Mostrar mais